Regional Weather Roundup
Issued by NWS Newport/Morehead, NC

Current Version | Previous Version | Text Only | Print | Product List | Glossary On
Versions: 1 2 3 4 5 6 7 8 9 10 11 12 13 14 15 16 17 18 19 20 21 22 23 24 25 26 27 28 29 30 31 32 33 34 35 36 37 38 39 40 41 42 43 44 45 46 47 48 49 50
000 ASUS42 KMHX 020822 RWRMHX WEATHER ROUNDUP FOR EASTERN NORTH CAROLINA NATIONAL WEATHER SERVICE NEWPORT/MOREHEAD CITY NC 400 AM EDT THU OCT 02 2014 NOTE: "FAIR" INDICATES FEW OR NO CLOUDS BELOW 12,000 FEET WITH NO SIGNIFICANT WEATHER AND/OR OBSTRUCTIONS TO VISIBILITY NCZ015>017-031-032-045>047-102-103-020900- NORTH COAST CITY SKY/WX TMP DP RH WIND PRES REMARKS EDENTON CLOUDY 61 61 99 CALM 30.06S ELIZABETH CITY PTCLDY 62 62 100 W3 30.06R KITTY HAWK PTSUNNY 67 62 83 CALM 30.04R MANTEO PTCLDY 64 61 89 CALM 30.05S $$ NCZ045>047-081-094-103-104-020900- CENTRAL COAST CITY SKY/WX TMP DP RH WIND PRES REMARKS FRISCO CLEAR 65 63 93 NE5 30.04S SWANQUARTER N/A 64 N/A N/A NW2 30.03R $$ NCZ095-097-098-100-101-020900- SOUTHERN COAST CITY SKY/WX TMP DP RH WIND PRES REMARKS BEAUFORT CLEAR 63 63 100 CALM 30.05S CEDAR ISLAND N/A 70 N/A N/A NE2 30.09S JACKSONVILLE CLEAR 62 61 96 CALM 30.05S FOG NEWPORT NOT AVBL PINEY ISLAND MOSUNNY 71 64 78 N3 30.05R WILMINGTON CLEAR 63 62 97 CALM 30.05R $$ NCZ011>013-027>030-043-044-078>080-089-090>093-098-020900- COASTAL PLAIN CITY SKY/WX TMP DP RH WIND PRES REMARKS AHOSKIE MOCLDY 61 60 96 CALM 30.07S CLINTON PTCLDY 61 61 100 CALM 30.06S ELIZABETHTOWN PTCLDY 63 63 99 CALM 30.06R GOLDSBORO CLEAR 61 60 98 CALM 30.05R GREENVILLE MOCLDY 63 63 100 CALM 30.08S FOG HAVELOCK CLEAR 63 61 93 CALM 30.06S KENANSVILLE MOCLDY 57 57 100 CALM 30.07R FOG KINSTON FOG 60 59 98 CALM 30.07S VSB 3/4 NEW BERN CLOUDY 63 61 94 CALM 30.07R FOG RICHLANDS CLEAR 59 55 88 CALM 30.06R ROANOKE RAPIDS NOT AVBL ROCKY MOUNT FOG 59 58 96 CALM 30.06F VSB 3/4 WASHINGTON PTCLDY 60 60 97 CALM 30.06S WHITEVILLE CLEAR 64 62 95 CALM 30.05S $$ AMZ130-135-150-152-154-156-158-170-250-252-270-ANZ085-086-088-633-658-670-020900- MARINE OBSERVATIONS STATION/POSITION TIME TEMP WIND PRES WAVE SWELL AIR SEA DIR/SP/G HT/PER HT/PER (UTC) (F) (DEG/KT/KT) (MB) (FT/S) (FT/S) CHESAPEAKE LIGHT 0800 69 40/ 9/ 9 1018.4 BUOY 44014 0800 69 71 360/ 14/ 17 1016.3 5/ 7 3/ 8 DUCK 0800 69 73 10/ 9/ 10 1016.6 2E DUCK 0800 N/A 4/ 7 OREGON INLET 0800 67 74 350/ 4/ 6 1017.2 BUOY 44095 0800 73 N/A 4/ 8 2/13 20E OREGON INLET NOT AVBL HATTERAS CG 0800 70 74 30/ 7/ 9 1017.6 DIAMOND BUOY 0800 70 360/ 12/ 14 1016.8 3/ 7 2/ 7 CAPE LOOKOUT 0800 71 10/ 5/ 6 1017.2 BEAUFORT LAB 0800 67 75 20/ 3/ 4 1017.0 30 SE NEW RIVER 0800 74 79 50/ 6/ 8 1016.7 2/ 8 2/ 8 5 SE WRIGHTSVILL 0800 69 76 350/ 8/ 8 N/A BUOY 41002 0653 79 80 40/ 10/ 10 1015.4 3/ 5 3/ 5 BUOY 41004 0800 78 81 60/ 8/ 12 1016.2 2/ 8 2/ 8 $$

USA.gov is the U.S. government's official web portal to all federal, state and local government web resources and services.